Orbital Elements at Epoch 2459200.5 (2020-Dec-17.0) TDB
Reference: JPL 29 (heliocentric ecliptic J2000)
Element | Value | Uncertainty (1-sigma) | Units |
e | .1781172865348166 | 3.6487e-08 | |
a | 2.68697127547196 | 1.1482e-08 | au |
q | 2.208375242887899 | 9.4635e-08 | au |
i | 11.43774756943298 | 4.5424e-06 | deg |
node | 265.1704422776885 | 1.8963e-05 | deg |
peri | 102.3541992030213 | 2.3923e-05 | deg |
M | 43.24872770320916 | 1.2492e-05 | deg |
tp | 2459007.230288869294 (2020-Jun-06.73028887) | 5.5936e-05 | TDB |
period | 1608.766308329839 4.40 | 1.0312e-05 2.823e-08 | d yr |
n | .2237739553196751 | 1.4343e-09 | deg/d |
Q | 3.16556730805602 | 1.3527e-08 | au |
|
| | Orbit Determination Parameters
Additional Information
|